Hourly Data Report for October 20, 2015

All times are specified in Local Standard Time (LST). Add 1 hour to adjust for Daylight Saving Time where and when it is observed.

CAPE DORSET A
NUNAVUT

64°13'49.000" N
76°31'30.000" W
48.20 m
2400637
71366
YTE

Download Data

Hourly Data (October 2015)
Hourly Data Report for October 20, 2015
Temp Definition
°C
Dew Point Temp Definition
°C
Rel Hum Definition
%
Wind Dir Definition
10's deg

Wind Spd Definition
km/h
Visibility Definition
km
Stn Press Definition
kPa
Hmdx Definition


Wind Chill Definition


Weather Definition


TIME
00:00 Legend Double Dagger -4.1 -4.6 96 6 32 3.2 99.25   -12 Snow
01:00 Legend Double Dagger -4.1 -4.9 94 5 39 4.8 99.31   -13 Snow
02:00 Legend Double Dagger -4.1 -5.2 92 6 34 16.1 99.40   -12 Snow
03:00 Legend Double Dagger -4.6 -5.3 95 5 35 4.8 99.49   -13 Snow
04:00 Legend Double Dagger -4.7 -5.4 95 5 28 6.4 99.62   -12 Snow
05:00 Legend Double Dagger -4.7 -5.5 94 5 30 11.3 99.70   -13 Snow
06:00 Legend Double Dagger -5.2 -6.0 94 5 28 16.1 99.79   -13 LegendNANA
07:00 Legend Double Dagger -5.8 -7.0 91 4 28 16.1 99.90   -14 LegendNANA
08:00 Legend Double Dagger -6.3 -7.7 90 4 26 16.1 99.99   -14 LegendNANA
09:00 Legend Double Dagger -6.0 -7.8 87 5 30 16.1 100.07   -14 LegendNANA
10:00 Legend Double Dagger -6.3 -8.3 86 4 21 16.1 100.15   -13 LegendNANA
11:00 Legend Double Dagger -6.7 -8.4 88 2 30 16.1 100.25   -15 LegendNANA
12:00 Legend Double Dagger -6.0 -8.3 84 3 28 16.1 100.31   -14 LegendNANA
13:00 Legend Double Dagger -5.5 -8.0 83 3 28 16.1 100.40   -13 Snow
14:00 Legend Double Dagger -5.1 -8.0 80 3 30 16.1 100.48   -13 LegendNANA
15:00 Legend Double Dagger -5.1 -8.0 80 3 22 16.1 100.58   -12 LegendNANA
16:00 Legend Double Dagger -5.4 -8.2 81 3 26 16.1 100.66   -13 Snow
17:00 Legend Double Dagger -5.6 -7.4 87 3 21 16.1 100.74   -12 Snow
18:00 Legend Double Dagger -6.2 -8.6 83 36 17 16.1 100.81   -12 LegendNANA
19:00 Legend Double Dagger -6.6 -9.3 81 35 11 16.1 100.86   -12 LegendNANA
20:00 Legend Double Dagger -6.5 -9.7 78 33 13 16.1 100.89   -12 LegendNANA
21:00 Legend Double Dagger -5.5 -7.3 87 35 18 16.1 100.93   -12 LegendNANA
22:00 Legend Double Dagger -5.0 -7.4 83 32 22 16.1 100.93   -12 LegendNANA
23:00 Legend Double Dagger -5.0 -7.8 81 30 24 16.1 100.95   -12 LegendNANA

Notes on Data Quality.

Legend

  • E = Estimated
  • M = Missing
  • NA = Not Available
  • ‡ = Partner data that is not subject to review by the National Climate Archives
Date modified: